Home   Weather   Delmenhorst   Past weeks

Flag for Germany Past Weather in Delmenhorst, Lower Saxony, Germany — Yesterday and Last 2 Weeks

50 °F


Feels Like: 47 °F
Forecast: 48 / 58 °F
Wind: 8 mph from Southwest

Location: Bremen Airport

Current Time: Oct 27, 2016 at 5:24:46 AM

Latest Report: Oct 27, 2016 at 4:50 AM

Visibility: 2 mi

Pressure: 30.33 "Hg

Humidity: 88%

Dew Point: 46 °F

Location of DelmenhorstLocation

Past Weather in Delmenhorst — Graph


Delmenhorst Temperature Yesterday

Maximum temperature yesterday: 48 °F (at 1:20 PM)
Minimum temperature yesterday: 32 °F (at 3:20 AM)
Average temperature yesterday: 40 °F

High & Low Weather Summary for the Past Weeks

High63 °F (Oct 16, 3:50 PM)100% (Oct 15, 4:50 PM)30.39 "Hg (Oct 15, 4:50 PM)
Low32 °F (Oct 26, 3:20 AM)58% (Oct 23, 3:20 PM)29.74 "Hg (Oct 15, 3:50 AM)
Average47 °F90%30.05 "Hg
* Reported Oct 12 3:20 AM — Oct 27 3:50 AM, Delmenhorst, Weather by CustomWeather, © 2016

Note: Actual official high and low records may vary slightly from our data, if they occured in-between our weather recording intervals... More about our weather records


Delmenhorst Weather History for the Previous 24 Hours

Scroll right to see more
Time TempWeatherWind HumidityBarometerVisibility
3:50 AM
Thu, Oct 27
50 °FFog.9 mph88%30.36 "Hg3 mi
3:20 AM50 °FFog.8 mph88%30.36 "Hg3 mi
2:50 AM48 °FFog.8 mph94%30.36 "Hg3 mi
2:20 AM48 °FFog.8 mph94%30.36 "Hg3 mi
1:50 AM48 °FFog.8 mph87%30.36 "Hg3 mi
1:20 AM48 °FFog.8 mph87%30.36 "Hg3 mi
12:50 AM48 °FFog.8 mph87%30.36 "Hg3 mi
12:20 AM48 °FFog.6 mph87%30.36 "Hg3 mi
11:50 PM
Wed, Oct 26
48 °FPassing clouds.7 mph87%30.36 "Hg4 mi
11:20 PM48 °FPartly cloudy.6 mph82%30.36 "Hg4 mi
10:50 PM46 °FPassing clouds.5 mph87%30.36 "Hg4 mi
10:20 PM45 °FPassing clouds.5 mph93%30.39 "Hg4 mi
9:50 PM45 °FClear.3 mph93%30.39 "Hg4 mi
9:20 PM45 °FClear.3 mph93%30.36 "Hg4 mi
8:50 PM45 °FFog.3 mph93%30.36 "Hg3 mi
8:20 PM46 °FPassing clouds.6 mph87%30.36 "Hg4 mi
7:50 PM45 °FClear.6 mph93%30.36 "Hg4 mi
7:20 PM45 °FClear.3 mph93%30.36 "Hg5 mi
6:50 PM46 °FClear.3 mph87%30.36 "Hg5 mi
6:20 PM45 °FClear.5 mph93%30.36 "Hg5 mi
5:50 PM46 °FPartly sunny.3 mph87%30.36 "Hg5 mi
5:20 PM48 °FBroken clouds.2 mph82%30.36 "Hg6 mi
4:50 PM48 °FPartly sunny.3 mph82%30.36 "HgN/A
4:20 PM48 °FPartly sunny.5 mph82%30.36 "HgN/A
3:50 PM48 °FBroken clouds.5 mph82%30.36 "HgN/A
3:20 PM48 °FPartly sunny.5 mph82%30.36 "HgN/A
2:50 PM48 °FPartly sunny.5 mph82%30.36 "HgN/A
2:20 PM48 °FBroken clouds.6 mph82%30.39 "HgN/A
1:50 PM48 °FPartly sunny.5 mph82%30.39 "HgN/A
1:20 PM48 °FPartly sunny.6 mph82%30.39 "HgN/A
12:50 PM46 °FPartly sunny.6 mph82%30.39 "Hg6 mi
12:20 PM43 °FBroken clouds.3 mph93%30.39 "Hg5 mi
11:50 AM41 °FFog.5 mph93%30.39 "Hg3 mi
11:20 AM39 °FFog.2 mph100%30.39 "Hg1 mi
10:50 AM37 °FFog.No wind100%30.39 "Hg0 mi
10:20 AM37 °FFog.1 mph93%30.39 "Hg0 mi
9:50 AM36 °FFog.No wind100%30.39 "Hg0 mi
9:20 AM34 °FFog.No wind100%30.39 "Hg0 mi
8:50 AM34 °FFog.3 mph100%30.39 "Hg0 mi
8:20 AM34 °FFog.No wind93%30.39 "Hg0 mi
7:50 AM34 °FFog.No wind93%30.39 "Hg0 mi
7:20 AM34 °FFog.2 mph100%30.39 "Hg0 mi
6:50 AM32 °FFog.2 mph100%30.36 "Hg0 mi
6:20 AM32 °FFog.No wind100%30.36 "Hg0 mi
5:50 AM32 °FFog.No wind100%30.36 "Hg0 mi
5:20 AM32 °FFog.No wind100%30.36 "Hg0 mi
Weather by CustomWeather, © 2016

See weather overviewHow to use our weather pages